When you browse on this site, cookies collect data to enhance your experience and personalize the content and advertising you see.
Visit our Privacy Policy to learn more. By continuing to use the site, you agree to this use of cookies and data.
  • In Schweiz
  • Länderverzeichnis
  • Für 7 Tage
  • Wassertemperatur
  • Satellitenkarten
  • Wetterkarte
  • Widgets
  • user-avatar
    Anmelden

    Stündliche Wetter Goslar

    Heute, 18 Juli, Donnerstag

    Zeit Temperatur Niederschläge Wind Luftdruck Luftfeuchtigkeit
    00:00 +13°C° 0 mm 1 m/S 732 mmHg 89%
    01:00 +13°C° 0 mm 1 m/S 732 mmHg 90%
    02:00 +12°C° 0 mm 0 m/S 732 mmHg 90%
    03:00 +11°C° 0 mm 0 m/S 732 mmHg 90%
    04:00 +11°C° 0 mm 0 m/S 732 mmHg 90%
    05:00 +13°C° 0 mm 0 m/S 732 mmHg 85%
    06:00 +14°C° 0 mm 0 m/S 732 mmHg 81%
    07:00 +16°C° 0 mm 0 m/S 732 mmHg 76%
    08:00 +17°C° 0 mm 0 m/S 732 mmHg 70%
    09:00 +21°C° 0 mm 1 m/S 732 mmHg 64%
    10:00 +22°C° 0 mm 1 m/S 732 mmHg 59%
    11:00 +22°C° 0.1 mm 1 m/S 732 mmHg 58%
    12:00 +23°C° 0.1 mm 1 m/S 732 mmHg 57%
    13:00 +23°C° 0.1 mm 1 m/S 731 mmHg 56%
    14:00 +23°C° 0 mm 1 m/S 731 mmHg 55%
    15:00 +24°C° 0 mm 1 m/S 731 mmHg 54%
    16:00 +24°C° 0 mm 1 m/S 731 mmHg 53%
    17:00 +23°C° 0 mm 1 m/S 731 mmHg 57%
    18:00 +22°C° 0 mm 1 m/S 731 mmHg 62%
    19:00 +20°C° 0 mm 0 m/S 731 mmHg 66%
    20:00 +20°C° 0.2 mm 1 m/S 731 mmHg 72%
    21:00 +19°C° 0.2 mm 1 m/S 731 mmHg 78%
    22:00 +16°C° 0.2 mm 1 m/S 732 mmHg 84%
    23:00 +16°C° 0.2 mm 1 m/S 732 mmHg 86%

    Morgen, 19 Juli, Freitag

    Zeit Temperatur Niederschläge Wind Luftdruck Luftfeuchtigkeit
    00:00 +16°C° 0.2 mm 1 m/S 732 mmHg 87%
    01:00 +15°C° 0.2 mm 0 m/S 732 mmHg 88%
    02:00 +14°C° 0 mm 0 m/S 732 mmHg 89%
    03:00 +14°C° 0 mm 0 m/S 732 mmHg 90%
    04:00 +14°C° 0 mm 0 m/S 732 mmHg 92%
    05:00 +16°C° 0 mm 1 m/S 732 mmHg 90%
    06:00 +16°C° 0 mm 1 m/S 732 mmHg 88%
    07:00 +18°C° 0 mm 1 m/S 733 mmHg 86%
    08:00 +19°C° 0.1 mm 2 m/S 733 mmHg 80%
    09:00 +20°C° 0.1 mm 2 m/S 733 mmHg 74%
    10:00 +21°C° 0.1 mm 3 m/S 733 mmHg 69%
    11:00 +22°C° 0.2 mm 3 m/S 733 mmHg 66%
    12:00 +24°C° 0.2 mm 3 m/S 733 mmHg 64%
    13:00 +25°C° 0.2 mm 3 m/S 733 mmHg 61%
    14:00 +24°C° 1 mm 3 m/S 733 mmHg 65%
    15:00 +24°C° 1 mm 3 m/S 733 mmHg 68%
    16:00 +24°C° 1 mm 2 m/S 733 mmHg 71%
    17:00 +23°C° 0.4 mm 2 m/S 733 mmHg 75%
    18:00 +22°C° 0.4 mm 1 m/S 733 mmHg 78%
    19:00 +22°C° 0.4 mm 1 m/S 733 mmHg 81%
    20:00 +20°C° 0 mm 1 m/S 733 mmHg 84%
    21:00 +19°C° 0 mm 1 m/S 733 mmHg 87%
    22:00 +18°C° 0 mm 1 m/S 733 mmHg 89%
    23:00 +16°C° 0 mm 1 m/S 733 mmHg 89%

    übermorgen, 20 Juli, Samstag

    Zeit Temperatur Niederschläge Wind Luftdruck Luftfeuchtigkeit
    00:00 +16°C° 0 mm 1 m/S 733 mmHg 89%
    01:00 +16°C° 0 mm 1 m/S 733 mmHg 89%
    02:00 +16°C° 0 mm 1 m/S 733 mmHg 89%
    03:00 +16°C° 0 mm 1 m/S 733 mmHg 90%
    04:00 +16°C° 0 mm 1 m/S 733 mmHg 90%
    05:00 +18°C° 0 mm 1 m/S 733 mmHg 87%
    06:00 +19°C° 0 mm 1 m/S 733 mmHg 85%
    07:00 +20°C° 0 mm 1 m/S 733 mmHg 82%
    08:00 +21°C° 0 mm 2 m/S 733 mmHg 75%
    09:00 +23°C° 0 mm 2 m/S 733 mmHg 68%
    10:00 +25°C° 0 mm 3 m/S 734 mmHg 61%
    11:00 +26°C° 0.2 mm 3 m/S 733 mmHg 60%
    12:00 +26°C° 0.2 mm 3 m/S 733 mmHg 60%
    13:00 +27°C° 0.2 mm 4 m/S 733 mmHg 59%
    14:00 +26°C° 1 mm 4 m/S 733 mmHg 63%
    15:00 +26°C° 1 mm 3 m/S 733 mmHg 67%
    16:00 +25°C° 1 mm 3 m/S 733 mmHg 71%
    17:00 +25°C° 0.1 mm 3 m/S 733 mmHg 73%
    18:00 +24°C° 0.1 mm 2 m/S 733 mmHg 75%
    19:00 +24°C° 0.1 mm 2 m/S 733 mmHg 77%
    20:00 +23°C° 0.4 mm 2 m/S 733 mmHg 80%
    21:00 +21°C° 0.4 mm 2 m/S 733 mmHg 82%
    22:00 +19°C° 0.4 mm 2 m/S 733 mmHg 85%
    23:00 +19°C° 0.1 mm 2 m/S 733 mmHg 87%

    21 Juli, Sonntag

    Zeit Temperatur Niederschläge Wind Luftdruck Luftfeuchtigkeit
    00:00 +18°C° 0.1 mm 2 m/S 733 mmHg 88%
    01:00 +17°C° 0.1 mm 2 m/S 733 mmHg 90%
    02:00 +17°C° 0.5 mm 2 m/S 733 mmHg 91%
    03:00 +17°C° 0.5 mm 2 m/S 734 mmHg 93%
    04:00 +16°C° 0.5 mm 2 m/S 734 mmHg 94%
    05:00 +17°C° 0.1 mm 2 m/S 734 mmHg 93%
    06:00 +18°C° 0.1 mm 3 m/S 734 mmHg 92%
    07:00 +18°C° 0.1 mm 3 m/S 735 mmHg 91%
    08:00 +19°C° 0.1 mm 4 m/S 735 mmHg 85%
    09:00 +20°C° 0.1 mm 4 m/S 736 mmHg 79%
    10:00 +21°C° 0.1 mm 5 m/S 736 mmHg 72%
    11:00 +22°C° 0 mm 5 m/S 736 mmHg 68%
    12:00 +23°C° 0 mm 5 m/S 737 mmHg 63%
    13:00 +25°C° 0 mm 5 m/S 737 mmHg 58%
    14:00 +25°C° 0.1 mm 5 m/S 737 mmHg 60%
    15:00 +25°C° 0.1 mm 5 m/S 737 mmHg 61%
    16:00 +25°C° 0.1 mm 5 m/S 737 mmHg 63%
    17:00 +23°C° 0 mm 4 m/S 738 mmHg 67%
    18:00 +22°C° 0 mm 3 m/S 738 mmHg 71%
    19:00 +22°C° 0 mm 3 m/S 738 mmHg 75%
    20:00 +20°C° 0 mm 2 m/S 738 mmHg 81%
    21:00 +18°C° 0 mm 2 m/S 739 mmHg 87%
    22:00 +18°C° 0 mm 1 m/S 739 mmHg 92%
    23:00 +16°C° 0 mm 1 m/S 739 mmHg 94%

    22 Juli, Montag

    Zeit Temperatur Niederschläge Wind Luftdruck Luftfeuchtigkeit
    00:00 +16°C° 0 mm 1 m/S 739 mmHg 95%
    01:00 +16°C° 0 mm 1 m/S 740 mmHg 96%
    02:00 +16°C° 0 mm 1 m/S 740 mmHg 96%
    03:00 +15°C° 0 mm 0 m/S 740 mmHg 96%
    04:00 +15°C° 0 mm 0 m/S 740 mmHg 96%
    05:00 +16°C° 0 mm 0 m/S 740 mmHg 93%
    06:00 +18°C° 0 mm 1 m/S 740 mmHg 90%
    07:00 +19°C° 0 mm 1 m/S 740 mmHg 86%
    08:00 +21°C° 0 mm 1 m/S 741 mmHg 79%
    09:00 +22°C° 0 mm 1 m/S 741 mmHg 72%
    10:00 +24°C° 0 mm 1 m/S 741 mmHg 64%
    11:00 +24°C° 0 mm 1 m/S 741 mmHg 62%
    12:00 +25°C° 0 mm 1 m/S 740 mmHg 60%
    13:00 +25°C° 0 mm 2 m/S 740 mmHg 58%
    14:00 +25°C° 0 mm 2 m/S 740 mmHg 58%
    15:00 +26°C° 0 mm 2 m/S 740 mmHg 57%
    16:00 +26°C° 0 mm 2 m/S 740 mmHg 56%
    17:00 +25°C° 0 mm 2 m/S 740 mmHg 61%
    18:00 +24°C° 0 mm 2 m/S 740 mmHg 66%
    19:00 +23°C° 0 mm 2 m/S 739 mmHg 70%
    20:00 +21°C° 0 mm 2 m/S 740 mmHg 73%
    21:00 +19°C° 0 mm 2 m/S 740 mmHg 75%
    22:00 +18°C° 0 mm 2 m/S 740 mmHg 77%
    23:00 +17°C° 0 mm 2 m/S 740 mmHg 78%

    23 Juli, Dienstag

    Zeit Temperatur Niederschläge Wind Luftdruck Luftfeuchtigkeit
    00:00 +17°C° 0 mm 2 m/S 740 mmHg 78%
    01:00 +16°C° 0 mm 2 m/S 740 mmHg 78%
    02:00 +16°C° 0 mm 2 m/S 739 mmHg 80%
    03:00 +15°C° 0 mm 2 m/S 739 mmHg 82%
    04:00 +15°C° 0 mm 1 m/S 739 mmHg 85%
    05:00 +16°C° 0 mm 2 m/S 739 mmHg 81%
    06:00 +18°C° 0 mm 2 m/S 739 mmHg 77%
    07:00 +19°C° 0 mm 2 m/S 739 mmHg 73%
    08:00 +21°C° 0 mm 2 m/S 739 mmHg 69%
    09:00 +22°C° 0 mm 3 m/S 739 mmHg 64%
    10:00 +25°C° 0 mm 3 m/S 739 mmHg 60%
    11:00 +26°C° 0 mm 3 m/S 739 mmHg 57%
    12:00 +27°C° 0 mm 4 m/S 739 mmHg 54%
    13:00 +27°C° 0 mm 4 m/S 739 mmHg 52%
    14:00 +27°C° 0 mm 4 m/S 738 mmHg 51%
    15:00 +27°C° 0 mm 4 m/S 738 mmHg 50%
    16:00 +27°C° 0 mm 4 m/S 737 mmHg 49%
    17:00 +26°C° 0 mm 4 m/S 737 mmHg 52%
    18:00 +25°C° 0 mm 3 m/S 737 mmHg 56%
    19:00 +24°C° 0 mm 3 m/S 737 mmHg 59%
    20:00 +21°C° 0 mm 2 m/S 737 mmHg 59%
    21:00 +19°C° 0 mm 2 m/S 737 mmHg 60%
    22:00 +18°C° 0 mm 2 m/S 737 mmHg 61%
    23:00 +17°C° 0 mm 2 m/S 737 mmHg 64%
    Mehr zeigen